�������l�o���
Date,Time,MP-1(��Sv/h),MP-2(��Sv/h),MP-3(��Sv/h),MP-4(��Sv/h),MP-5(��Sv/h),MP-6(��Sv/h),MP-7(��Sv/h),MP-8(��Sv/h),����,����(m/s),���J
2024/01/30,00:00,0.508,0.773,0.482,0.971,0.688,0.311,0.553,0.519,���쐼,5.0,��
2024/01/30,00:10,0.507,0.773,0.483,0.969,0.687,0.310,0.555,0.520,���쐼,4.4,��
2024/01/30,00:20,0.510,0.771,0.481,0.968,0.687,0.312,0.554,0.521,��,5.1,��
2024/01/30,00:30,0.509,0.771,0.482,0.970,0.688,0.311,0.555,0.520,��,5.0,��
2024/01/30,00:40,0.510,0.771,0.482,0.970,0.686,0.311,0.555,0.519,��,3.6,��
2024/01/30,00:50,0.508,0.772,0.482,0.970,0.687,0.310,0.555,0.520,��,3.4,��
2024/01/30,01:00,0.509,0.771,0.480,0.968,0.687,0.310,0.554,0.519,��,3.7,��
2024/01/30,01:10,0.509,0.771,0.483,0.970,0.687,0.310,0.555,0.520,���쐼,4.0,��
2024/01/30,01:20,0.509,0.770,0.481,0.968,0.687,0.311,0.554,0.520,��,4.5,��
2024/01/30,01:30,0.508,0.772,0.482,0.972,0.686,0.311,0.554,0.520,���쐼,3.7,��
2024/01/30,01:40,0.509,0.769,0.482,0.970,0.690,0.311,0.553,0.520,���쐼,3.7,��
2024/01/30,01:50,0.509,0.772,0.481,0.969,0.687,0.311,0.554,0.520,���쐼,4.4,��
2024/01/30,02:00,0.508,0.771,0.481,0.968,0.686,0.311,0.554,0.519,���쐼,3.9,��
2024/01/30,02:10,0.508,0.772,0.483,0.969,0.687,0.311,0.555,0.520,���쐼,5.0,��
2024/01/30,02:20,0.509,0.771,0.482,0.968,0.687,0.310,0.554,0.521,���쐼,5.6,��
2024/01/30,02:30,0.506,0.771,0.481,0.971,0.688,0.310,0.555,0.519,��,6.8,��
2024/01/30,02:40,0.509,0.772,0.482,0.970,0.686,0.311,0.555,0.519,��,5.3,��
2024/01/30,02:50,0.510,0.771,0.482,0.969,0.688,0.312,0.555,0.520,��,5.3,��
2024/01/30,03:00,0.509,0.772,0.482,0.969,0.687,0.311,0.555,0.519,��,5.0,��
2024/01/30,03:10,0.509,0.773,0.483,0.969,0.688,0.312,0.553,0.520,��,5.1,��
2024/01/30,03:20,0.510,0.769,0.482,0.971,0.685,0.310,0.554,0.519,��,5.9,��
2024/01/30,03:30,0.508,0.772,0.481,0.971,0.687,0.312,0.555,0.521,��,6.5,��
2024/01/30,03:40,0.510,0.774,0.483,0.969,0.687,0.311,0.555,0.520,��,5.4,��
2024/01/30,03:50,0.509,0.770,0.483,0.971,0.688,0.311,0.554,0.521,��,6.2,��
2024/01/30,04:00,0.508,0.773,0.480,0.971,0.686,0.310,0.554,0.519,��,6.1,��
2024/01/30,04:10,0.510,0.772,0.482,0.970,0.685,0.311,0.554,0.520,���쐼,6.0,��
2024/01/30,04:20,0.510,0.771,0.480,0.970,0.685,0.310,0.554,0.521,���쐼,6.5,��
2024/01/30,04:30,0.509,0.773,0.483,0.969,0.686,0.311,0.553,0.521,��,5.4,��
2024/01/30,04:40,0.509,0.771,0.482,0.969,0.686,0.311,0.555,0.520,��,4.4,��
2024/01/30,04:50,0.508,0.769,0.482,0.970,0.686,0.311,0.554,0.522,�쐼,4.1,��
2024/01/30,05:00,0.508,0.770,0.482,0.969,0.686,0.311,0.555,0.519,���쐼,3.9,��
2024/01/30,05:10,0.508,0.770,0.481,0.970,0.688,0.311,0.554,0.521,���쐼,4.8,��
2024/01/30,05:20,0.508,0.769,0.484,0.971,0.686,0.311,0.555,0.520,���쐼,4.4,��
2024/01/30,05:30,0.510,0.770,0.482,0.970,0.686,0.310,0.554,0.519,��,4.7,��
2024/01/30,05:40,0.509,0.771,0.482,0.969,0.686,0.309,0.554,0.522,��,5.2,��
2024/01/30,05:50,0.508,0.770,0.483,0.970,0.686,0.311,0.554,0.521,��,4.5,��
2024/01/30,06:00,0.510,0.772,0.481,0.972,0.686,0.310,0.554,0.521,��,4.1,��
2024/01/30,06:10,0.508,0.771,0.481,0.971,0.685,0.310,0.553,0.520,���k��,4.6,��
2024/01/30,06:20,0.509,0.770,0.483,0.969,0.686,0.311,0.555,0.520,���k��,3.9,��
2024/01/30,06:30,0.509,0.772,0.482,0.970,0.687,0.311,0.554,0.521,�k�k��,3.8,��
2024/01/30,06:40,0.508,0.772,0.483,0.971,0.685,0.311,0.555,0.521,���k��,4.6,��
2024/01/30,06:50,0.509,0.772,0.480,0.969,0.686,0.310,0.554,0.520,��,3.9,��
2024/01/30,07:00,0.509,0.770,0.483,0.971,0.686,0.310,0.554,0.521,���k��,2.2,��
2024/01/30,07:10,0.510,0.771,0.482,0.971,0.687,0.311,0.554,0.520,���k��,1.2,��
2024/01/30,07:20,0.509,0.770,0.484,0.971,0.686,0.310,0.553,0.522,�k�k��,1.1,��
2024/01/30,07:30,0.509,0.772,0.481,0.969,0.686,0.310,0.554,0.521,-,CALM,��
2024/01/30,07:40,0.507,0.772,0.481,0.968,0.685,0.311,0.555,0.520,-,CALM,��
2024/01/30,07:50,0.508,0.770,0.482,0.970,0.683,0.310,0.554,0.520,�k��,0.8,��
2024/01/30,08:00,0.508,0.772,0.481,0.971,0.686,0.310,0.556,0.522,���k��,0.9,��
2024/01/30,08:10,0.509,0.772,0.481,0.971,0.686,0.311,0.554,0.520,���k��,1.5,��
2024/01/30,08:20,0.508,0.771,0.481,0.971,0.683,0.311,0.554,0.521,���k��,2.3,��
2024/01/30,08:30,0.509,0.772,0.481,0.968,0.686,0.311,0.555,0.520,�k��,3.3,��
2024/01/30,08:40,0.509,0.772,0.481,0.970,0.685,0.311,0.555,0.520,�k��,4.5,��
2024/01/30,08:50,0.509,0.772,0.481,0.972,0.686,0.312,0.555,0.519,���k��,4.3,��
2024/01/30,09:00,0.510,0.773,0.483,0.971,0.686,0.312,0.555,0.520,��,3.6,��
2024/01/30,09:10,0.509,0.773,0.484,0.972,0.685,0.310,0.556,0.521,��,4.0,��
2024/01/30,09:20,0.511,0.772,0.482,0.972,0.687,0.312,0.557,0.520,���k��,3.9,��
2024/01/30,09:30,0.508,0.771,0.482,0.971,0.687,0.311,0.556,0.521,�k��,4.5,��
2024/01/30,09:40,0.508,0.769,0.482,0.973,0.688,0.310,0.556,0.520,���k��,5.8,��
2024/01/30,09:50,0.510,0.772,0.483,0.972,0.687,0.311,0.554,0.521,���k��,4.4,��
2024/01/30,10:00,0.509,0.769,0.483,0.972,0.688,0.310,0.555,0.520,���k��,3.5,��
2024/01/30,10:10,0.510,0.770,0.482,0.974,0.688,0.311,0.554,0.520,�k��,1.4,��
2024/01/30,10:20,0.509,0.769,0.486,0.971,0.689,0.312,0.554,0.521,�k�k��,5.3,��
2024/01/30,10:30,0.510,0.769,0.483,0.970,0.687,0.311,0.553,0.521,�k��,6.5,��
2024/01/30,10:40,0.508,0.769,0.482,0.973,0.688,0.313,0.554,0.523,�k�k��,7.7,��
2024/01/30,10:50,0.511,0.769,0.483,0.972,0.690,0.314,0.553,0.520,�k�k��,7.1,��
2024/01/30,11:00,0.510,0.771,0.482,0.970,0.688,0.312,0.556,0.520,�k,6.3,��
2024/01/30,11:10,0.510,0.769,0.483,0.971,0.688,0.312,0.553,0.521,�k�k��,5.4,��
2024/01/30,11:20,0.509,0.770,0.483,0.973,0.689,0.312,0.554,0.520,�k��,4.9,��
2024/01/30,11:30,0.510,0.770,0.482,0.973,0.687,0.312,0.557,0.521,�k�k��,4.9,��
2024/01/30,11:40,0.508,0.771,0.482,0.973,0.690,0.312,0.555,0.521,�k�k��,3.8,��
2024/01/30,11:50,0.509,0.769,0.482,0.973,0.689,0.312,0.555,0.521,�k�k��,3.8,��
2024/01/30,12:00,0.508,0.772,0.483,0.971,0.687,0.312,0.553,0.521,�k�k��,5.0,��
2024/01/30,12:10,0.508,0.771,0.484,0.972,0.687,0.312,0.556,0.521,�k��,5.1,��
2024/01/30,12:20,0.509,0.773,0.483,0.974,0.690,0.312,0.555,0.521,�k��,5.7,��
2024/01/30,12:30,0.509,0.769,0.483,0.972,0.688,0.313,0.555,0.523,�k�k��,3.6,��
2024/01/30,12:40,0.511,0.772,0.486,0.973,0.687,0.311,0.556,0.522,�k�k��,4.3,��
2024/01/30,12:50,0.512,0.771,0.485,0.972,0.688,0.313,0.554,0.522,�k�k��,5.4,��
2024/01/30,13:00,0.512,0.771,0.485,0.974,0.689,0.313,0.555,0.522,�k��,4.4,��
2024/01/30,13:10,0.511,0.772,0.483,0.976,0.688,0.312,0.555,0.522,���k��,4.2,��
2024/01/30,13:20,0.512,0.776,0.483,0.974,0.689,0.314,0.553,0.519,���k��,2.8,��
2024/01/30,13:30,0.511,0.775,0.484,0.973,0.689,0.312,0.556,0.521,��,3.1,��
2024/01/30,13:40,0.513,0.777,0.484,0.974,0.689,0.312,0.555,0.519,��,3.5,��
2024/01/30,13:50,0.513,0.776,0.483,0.973,0.689,0.312,0.557,0.519,���k��,1.7,��
2024/01/30,14:00,0.512,0.775,0.484,0.974,0.692,0.313,0.555,0.519,��,2.6,��
2024/01/30,14:10,0.510,0.773,0.485,0.973,0.690,0.313,0.556,0.519,���쐼,1.9,��
2024/01/30,14:20,0.511,0.773,0.485,0.974,0.690,0.312,0.555,0.519,���k��,2.8,�L
2024/01/30,14:30,0.510,0.773,0.484,0.974,0.690,0.311,0.556,0.520,�k�k��,2.5,��
2024/01/30,14:40,0.511,0.772,0.482,0.974,0.690,0.312,0.556,0.519,��,2.3,��
2024/01/30,14:50,0.511,0.772,0.481,0.976,0.689,0.313,0.555,0.520,��,2.3,��
2024/01/30,15:00,0.510,0.773,0.481,0.972,0.689,0.313,0.555,0.520,���쐼,2.6,��
2024/01/30,15:10,0.511,0.771,0.482,0.975,0.691,0.312,0.557,0.521,��,4.1,��
2024/01/30,15:20,0.510,0.770,0.484,0.974,0.689,0.313,0.557,0.521,��,4.0,��
2024/01/30,15:30,0.510,0.773,0.482,0.973,0.690,0.312,0.556,0.520,��,3.3,��
2024/01/30,15:40,0.508,0.775,0.482,0.976,0.691,0.312,0.557,0.522,���k��,3.8,��
2024/01/30,15:50,0.510,0.773,0.484,0.974,0.690,0.312,0.557,0.522,���k��,3.4,��
2024/01/30,16:00,0.509,0.774,0.483,0.972,0.690,0.313,0.557,0.521,���k��,2.9,��
2024/01/30,16:10,0.509,0.774,0.485,0.974,0.690,0.314,0.557,0.522,���k��,3.8,��
2024/01/30,16:20,0.512,0.775,0.484,0.976,0.690,0.314,0.557,0.523,���k��,3.9,��
2024/01/30,16:30,0.510,0.773,0.485,0.973,0.692,0.313,0.556,0.522,���k��,3.8,��
2024/01/30,16:40,0.511,0.774,0.483,0.974,0.689,0.313,0.556,0.523,���k��,3.9,��
2024/01/30,16:50,0.511,0.776,0.486,0.974,0.687,0.313,0.557,0.522,���k��,3.4,��
2024/01/30,17:00,0.512,0.773,0.484,0.972,0.690,0.312,0.559,0.520,�k��,2.6,��
2024/01/30,17:10,0.509,0.774,0.484,0.973,0.693,0.312,0.556,0.522,�k�k��,4.1,��
2024/01/30,17:20,0.512,0.772,0.485,0.973,0.691,0.311,0.558,0.522,�k�k��,4.7,��
2024/01/30,17:30,0.511,0.774,0.485,0.974,0.692,0.312,0.557,0.521,�k�k��,4.9,��
2024/01/30,17:40,0.510,0.773,0.483,0.973,0.691,0.311,0.558,0.522,�k�k��,4.8,��
2024/01/30,17:50,0.510,0.775,0.484,0.972,0.691,0.311,0.557,0.521,�k�k��,4.3,��
2024/01/30,18:00,0.510,0.774,0.485,0.974,0.691,0.310,0.556,0.521,�k�k��,3.7,��
2024/01/30,18:10,0.512,0.774,0.483,0.972,0.693,0.312,0.556,0.519,�k�k��,3.5,��
2024/01/30,18:20,0.510,0.775,0.485,0.973,0.691,0.311,0.556,0.521,�k�k��,3.8,��
2024/01/30,18:30,0.511,0.775,0.484,0.971,0.692,0.312,0.559,0.521,�k�k��,4.6,��
2024/01/30,18:40,0.511,0.774,0.484,0.973,0.692,0.311,0.555,0.521,�k�k��,4.4,��
2024/01/30,18:50,0.511,0.773,0.483,0.973,0.690,0.311,0.555,0.522,�k�k��,4.1,��
2024/01/30,19:00,0.510,0.775,0.484,0.973,0.691,0.311,0.556,0.519,�k��,4.1,��
2024/01/30,19:10,0.510,0.774,0.483,0.973,0.694,0.312,0.555,0.520,�k��,4.4,��
2024/01/30,19:20,0.510,0.775,0.484,0.974,0.691,0.311,0.556,0.520,�k��,4.0,��
2024/01/30,19:30,0.509,0.774,0.485,0.973,0.692,0.312,0.555,0.521,�k��,3.1,��
2024/01/30,19:40,0.509,0.776,0.485,0.974,0.690,0.313,0.555,0.520,�k��,3.1,��
2024/01/30,19:50,0.509,0.775,0.482,0.973,0.692,0.313,0.555,0.521,�k��,3.6,��
2024/01/30,20:00,0.508,0.776,0.482,0.973,0.692,0.312,0.556,0.521,�k��,3.4,��
2024/01/30,20:10,0.510,0.775,0.483,0.974,0.691,0.312,0.555,0.519,�k��,3.5,��
2024/01/30,20:20,0.509,0.772,0.483,0.974,0.691,0.311,0.554,0.520,���k��,3.6,��
2024/01/30,20:30,0.511,0.774,0.483,0.971,0.691,0.312,0.556,0.520,�k��,3.3,��
2024/01/30,20:40,0.510,0.774,0.481,0.972,0.692,0.311,0.554,0.521,�k��,3.2,��
2024/01/30,20:50,0.510,0.774,0.481,0.973,0.694,0.312,0.555,0.520,���k��,3.4,��
2024/01/30,21:00,0.511,0.774,0.484,0.973,0.690,0.311,0.555,0.519,�k��,3.5,��
2024/01/30,21:10,0.511,0.775,0.481,0.974,0.692,0.311,0.555,0.519,�k��,2.8,��
2024/01/30,21:20,0.512,0.774,0.484,0.972,0.691,0.311,0.554,0.521,�k��,2.6,��
2024/01/30,21:30,0.511,0.775,0.483,0.974,0.691,0.311,0.554,0.521,�k��,2.6,��
2024/01/30,21:40,0.510,0.772,0.483,0.975,0.691,0.311,0.554,0.521,�k��,2.0,��
2024/01/30,21:50,0.510,0.774,0.483,0.973,0.691,0.311,0.556,0.520,���k��,1.4,��
2024/01/30,22:00,0.511,0.772,0.481,0.972,0.693,0.313,0.554,0.520,���쐼,1.4,��
2024/01/30,22:10,0.509,0.775,0.483,0.974,0.690,0.313,0.557,0.520,�쐼,1.5,��
2024/01/30,22:20,0.510,0.776,0.483,0.973,0.691,0.311,0.555,0.520,���쐼,1.2,��
2024/01/30,22:30,0.511,0.774,0.484,0.973,0.691,0.312,0.554,0.520,���k��,1.2,��
2024/01/30,22:40,0.511,0.773,0.483,0.973,0.691,0.311,0.555,0.521,���k��,0.9,��
2024/01/30,22:50,0.510,0.774,0.483,0.974,0.690,0.311,0.554,0.520,���쐼,1.5,��
2024/01/30,23:00,0.510,0.772,0.484,0.973,0.691,0.311,0.554,0.520,���쐼,1.2,��
2024/01/30,23:10,0.512,0.773,0.483,0.972,0.691,0.312,0.555,0.521,��,1.4,��
2024/01/30,23:20,0.510,0.774,0.482,0.972,0.692,0.310,0.555,0.520,���k��,1.7,��
2024/01/30,23:30,0.509,0.773,0.483,0.973,0.690,0.311,0.555,0.520,���k��,1.8,��
2024/01/30,23:40,0.510,0.772,0.483,0.973,0.691,0.312,0.555,0.520,�k��,1.4,��
2024/01/30,23:50,0.510,0.774,0.483,0.974,0.690,0.312,0.554,0.520,���k��,1.4,��
